Location: Beddau
(51.5575°N, 3.3561°W)
Time: 14:09:24
(UTC+00:00)

Meteor 1-19 Rocket - Pass Details

Date: 03 March 2021
Orbit: 807 x 928 km, 81.2° (Epoch: 10 April)

Event Time Altitude Azimuth Distance (km) Brightness Sun altitude
Rises 18:39:14 0° 347° (NNW) 3,577 7.6 -7.3°
Reaches altitude 10° 18:41:46 10° 349° (N) 2,620 6.9 -7.7°
Maximum altitude 18:47:46 75° 75° (ENE) 933 4.3 -8.6°
Drops below altitude 10° 18:53:33 10° 162° (SSE) 2,531 6.5 -9.5°
Sets 18:55:57 0° 164° (SSE) 3,447 7.2 -9.9°
